[[{"header":{"parameterUnit":"m.s-1","parameterCategory":1,"la1":30.2991,"la2":30.254,"lo1":-89.0895,"lo2":-89.0444,"dy":0.0017,"dx":0.0017,"nx":28,"ny":28,"refTime":"2024-11-22T09:00:00:Z","depth":0,"parameterNumber":2,"parameterNumberName":"U-component_of_WINDS"},"data":[0,0,0,0,0,0,0,0,0,0,0,0,0,0,0,0,0,0,0,0,0,0,0,0,0,0,0,0,0,0,0,0,0,0,0,0,0,0,0,0,0,0,0,0,0,0,0,0,0,0,0,0,0,0,0,0,0,0,5.4545,5.4547,0,5.474,5.4742,5.4745,5.4661,5.4656,5.4651,5.4647,5.485,5.486,5.487,0,0,0,0,0,0,0,0,0,0,0,0,0,5.4103,5.4112,5.4545,5.4547,5.455,5.474,5.4743,5.4745,5.4662,5.4656,5.465,5.4645,5.4847,5.4859,5.4871,0,0,0,0,0,0,0,0,0,0,0,0,0,5.4297,5.4115,5.4544,5.4531,5.4532,5.4739,5.4743,5.4746,5.4663,5.4656,5.4649,5.4642,5.4843,5.4858,5.4872,5.5106,0,0,5.4917,5.4924,0,0,0,0,0,0,0,0,5.4286,5.4313,5.453,5.4532,5.4533,5.4669,5.4661,5.4867,5.4665,5.4613,5.4647,5.4638,5.4796,5.4814,5.4867,5.5115,5.5124,5.4919,5.4928,5.4934,5.4938,0,0,0,0,0,0,0,5.4272,5.4304,5.4622,5.4534,5.4536,5.4516,5.4536,5.47,5.4742,5.4617,5.4611,5.4636,5.4795,5.4852,5.4871,5.5127,5.4918,5.4931,5.494,5.4946,5.5579,5.5586,0,0,0,0,0,0,5.4259,5.4293,5.4616,5.4628,5.4389,5.453,5.4552,5.4633,5.474,5.475,5.4641,5.4631,5.4831,5.4854,5.4878,5.5159,5.4934,5.4948,5.4956,5.5571,5.5581,5.5589,0,0,0,0,0,0,5.4249,5.4288,5.4608,5.4459,5.4499,5.4545,5.4636,5.464,5.4697,5.4758,5.4766,5.4692,5.4826,5.4857,5.505,5.5165,5.4954,5.4968,5.5562,5.5574,5.5585,5.5724,0,0,0,0,0,0,5.4237,5.4285,5.4374,5.4462,5.4507,5.4776,5.4643,5.4649,5.4722,5.4711,5.4808,5.4817,5.4823,5.5028,5.5064,5.5182,5.4979,5.5551,5.5567,5.5581,5.5709,5.5739,5.5765,0,0,0,0,0,5.4222,5.4405,5.4379,5.4418,5.4618,5.4783,5.4809,5.4811,5.4732,5.4822,5.4861,5.4814,5.5146,5.5049,5.5089,5.5212,5.5544,5.5563,5.558,5.5697,5.5733,5.5764,0,0,0,0,0,0,5.4331,5.4417,5.4388,5.4605,5.4688,5.4769,5.4882,5.4849,5.4956,5.4941,5.4939,5.4962,5.5162,5.5206,5.5096,5.5445,5.5333,5.536,5.5409,5.5444,5.5471,5.5457,5.4991,0,0,0,0,0,5.438,5.4505,5.4574,5.476,5.4802,5.4836,5.4907,5.4902,5.4987,5.5022,5.5075,5.5161,5.5285,5.5366,5.5484,5.5715,5.5736,5.582,5.5847,5.587,5.5893,5.602,5.6059,5.5648,5.5648,5.5647,0,0,5.4483,5.4546,5.4625,5.4783,5.4846,5.4978,5.4865,5.5009,5.5107,5.5044,5.5229,5.5272,5.5368,5.5581,5.5678,5.5624,5.6011,5.5892,5.591,5.5921,5.6043,5.6081,5.6116,5.566,5.5658,5.5656,0,0,5.4739,5.4798,5.496,5.5025,5.5121,5.5142,5.5181,5.5268,5.5293,5.5479,5.5435,5.5552,5.5765,5.5835,5.5899,5.6182,5.6143,5.622,5.6365,5.6489,5.6522,5.655,5.6653,5.6689,5.6243,5.6244,5.6244,0,5.4856,5.5051,5.5047,5.5195,5.5266,5.5214,5.5379,5.5443,5.5573,5.5624,5.5562,5.5828,5.5889,5.6119,5.6188,5.6241,5.6287,5.621,5.6517,5.6546,5.6573,5.667,5.6709,5.6252,5.6251,5.6251,5.625,0,5.519,5.5326,5.5445,5.5572,5.5656,5.5812,5.5833,5.592,5.5907,5.5935,5.6126,5.6197,5.6328,5.6382,5.6371,5.6611,5.6575,5.6515,5.6404,5.6621,5.6712,5.675,5.6265,5.6262,5.6259,5.6257,0,0,5.5521,5.5643,5.5687,5.5744,5.5846,5.5952,5.6106,5.6233,5.6308,5.64,5.653,5.6711,5.6657,5.6729,5.6726,5.6834,5.7056,5.6761,5.6764,5.6815,5.7327,5.7372,5.7415,5.703,5.7037,5.7043,5.7319,0,5.5785,5.6053,5.6055,5.6302,5.6429,5.6381,5.6515,5.6594,5.6624,5.6737,5.6771,5.69,5.6817,5.6861,5.6966,5.7007,5.7159,5.6987,5.7153,5.7159,5.7131,5.7463,5.7512,5.7769,5.7355,5.7361,5.7365,0,5.6129,5.6231,5.6491,5.6576,5.6629,5.675,5.6867,5.6975,5.7064,5.7078,5.7159,5.714,5.7298,5.7181,5.74,5.7282,5.735,5.7381,5.7391,5.7407,5.7276,5.749,5.7851,5.789,5.7422,5.7417,5.7413,0,5.6346,5.6548,5.673,5.678,5.6884,5.697,5.7017,5.7098,5.7175,5.7278,5.7328,5.7448,5.7515,5.7609,5.7623,5.7536,5.7844,5.7727,5.7862,5.7862,5.793,5.7925,5.8308,5.7972,5.7971,5.797,5.7969,0,5.6642,5.6803,5.6829,5.6941,5.7121,5.7122,5.73,5.7341,5.7414,5.7534,5.75,5.7614,5.7625,5.7743,5.7755,5.7935,5.7965,5.7982,5.7984,5.7986,5.7984,5.8032,5.8015,5.798,5.7978,5.7976,5.7974,0,5.6915,5.6938,5.7134,5.7215,5.724,5.7369,5.7439,5.7547,5.7574,5.7727,5.7763,5.7805,5.7942,5.7965,5.8127,5.8135,5.8351,5.8333,5.8321,5.8319,5.8453,5.8441,5.888,5.8938,5.8563,5.8566,5.8569,0,5.7103,5.7226,5.732,5.7398,5.7449,5.7575,5.7652,5.7658,5.7741,5.7851,5.7947,5.808,5.8187,5.8408,5.8455,5.8578,5.8564,5.871,5.8583,5.8582,5.8568,5.8562,5.8575,5.8735,5.8739,5.8742,5.8745,0,5.7434,5.744,5.7553,5.7671,5.7765,5.7858,5.7946,5.8012,5.803,5.8125,5.8264,5.8347,5.8511,5.8645,5.8767,5.8817,5.8786,5.8784,5.8822,5.8827,5.8815,5.8825,5.8389,5.8774,5.8771,5.8769,5.8768,5.8766,5.7672,5.7779,5.7863,5.799,5.8057,5.814,5.8246,5.8285,5.8401,5.8535,5.8531,5.8684,5.8771,5.8932,5.899,5.9111,5.9065,5.9119,5.9133,5.9147,5.9161,5.8794,5.9133,5.9133,5.9132,5.9131,5.9131,0,5.8003,5.8054,5.8171,5.8295,5.8396,5.8355,5.8451,5.8538,5.8673,5.8755,5.8861,5.9022,5.9151,5.9207,5.9335,5.9421,5.941,5.9454,5.9449,5.9461,5.9194,5.9149,5.9462,5.9462,5.9461,5.9461,5.9461,5.9461,5.8187,5.8367,5.8383,5.8596,5.8646,5.8795,5.8854,5.8931,5.8997,5.9177,5.9284,5.9319,5.9392,5.9525,5.9642,5.9655,5.9705,5.9757,5.9764,5.9513,5.948,5.9448,5.9406,5.9767,5.9767,6.0021,6.0023,6.0025]},{"header":{"parameterUnit":"m.s-1","parameterCategory":1,"la1":30.2991,"la2":30.254,"lo1":-89.0895,"lo2":-89.0444,"dy":0.0017,"dx":0.0017,"nx":28,"ny":28,"refTime":"2024-11-22T09:00:00:Z","depth":0,"parameterNumber":3,"parameterNumberName":"V-component_of_WINDS"},"data":[0,0,0,0,0,0,0,0,0,0,0,0,0,0,0,0,0,0,0,0,0,0,0,0,0,0,0,0,0,0,0,0,0,0,0,0,0,0,0,0,0,0,0,0,0,0,0,0,0,0,0,0,0,0,0,0,0,0,-2.4781,-2.4783,0,-2.4914,-2.4915,-2.4917,-2.4889,-2.4886,-2.4884,-2.4882,-2.5021,-2.5027,-2.5033,0,0,0,0,0,0,0,0,0,0,0,0,0,-2.4508,-2.4513,-2.4781,-2.4783,-2.4784,-2.4914,-2.4915,-2.4917,-2.4889,-2.4886,-2.4883,-2.488,-2.5019,-2.5026,-2.5033,0,0,0,0,0,0,0,0,0,0,0,0,0,-2.4632,-2.4514,-2.4781,-2.4786,-2.4788,-2.4913,-2.4916,-2.4918,-2.489,-2.4886,-2.4882,-2.4879,-2.5017,-2.5025,-2.5034,-2.5164,0,0,-2.5062,-2.5066,0,0,0,0,0,0,0,0,-2.4625,-2.4642,-2.4784,-2.4786,-2.4788,-2.4881,-2.487,-2.5001,-2.4891,-2.4851,-2.4881,-2.4877,-2.4978,-2.499,-2.5023,-2.5171,-2.5177,-2.5063,-2.5068,-2.5072,-2.5075,0,0,0,0,0,0,0,-2.4616,-2.4636,-2.4834,-2.4786,-2.4788,-2.4783,-2.4797,-2.4895,-2.4934,-2.4854,-2.4853,-2.4869,-2.4978,-2.5014,-2.5026,-2.5179,-2.5062,-2.507,-2.5076,-2.508,-2.5441,-2.5445,0,0,0,0,0,0,-2.4605,-2.4629,-2.483,-2.4838,-2.4696,-2.4791,-2.4806,-2.4855,-2.4933,-2.4941,-2.4872,-2.4867,-2.5001,-2.5015,-2.5031,-2.5189,-2.5072,-2.508,-2.5086,-2.5437,-2.5442,-2.5447,0,0,0,0,0,0,-2.46,-2.4623,-2.4824,-2.4733,-2.4758,-2.4799,-2.4855,-2.486,-2.4895,-2.4945,-2.4953,-2.4901,-2.4998,-2.5018,-2.5131,-2.5193,-2.5084,-2.5093,-2.5432,-2.5439,-2.5444,-2.5505,0,0,0,0,0,0,-2.4592,-2.4621,-2.467,-2.4734,-2.4763,-2.4922,-2.4858,-2.4865,-2.4911,-2.4906,-2.4975,-2.4983,-2.4997,-2.5118,-2.514,-2.5203,-2.51,-2.5427,-2.5435,-2.5442,-2.5498,-2.5513,-2.5525,0,0,0,0,0,-2.4582,-2.4683,-2.4673,-2.4697,-2.4825,-2.4925,-2.4942,-2.4955,-2.4916,-2.4966,-2.4998,-2.4981,-2.5182,-2.513,-2.5155,-2.5221,-2.5423,-2.5433,-2.5442,-2.5491,-2.551,-2.5525,0,0,0,0,0,0,-2.4626,-2.4691,-2.4681,-2.4805,-2.486,-2.492,-2.4984,-2.4973,-2.5041,-2.5034,-2.5048,-2.5064,-2.518,-2.5212,-2.5152,-2.5352,-2.5297,-2.5312,-2.5327,-2.5344,-2.5358,-2.5348,-2.5107,0,0,0,0,0,-2.465,-2.4724,-2.4778,-2.4882,-2.491,-2.4942,-2.4986,-2.4992,-2.5049,-2.5073,-2.5113,-2.5171,-2.5247,-2.5297,-2.5371,-2.5502,-2.5518,-2.5561,-2.5574,-2.5585,-2.5598,-2.5672,-2.5692,-2.5478,-2.5478,-2.5478,0,0,-2.47,-2.4745,-2.4791,-2.4892,-2.4935,-2.5013,-2.4962,-2.5047,-2.5106,-2.5086,-2.5195,-2.5227,-2.5293,-2.5416,-2.5472,-2.5446,-2.5661,-2.5597,-2.5606,-2.5613,-2.5683,-2.5704,-2.5722,-2.5484,-2.5483,-2.5482,0,0,-2.4832,-2.4873,-2.4965,-2.5009,-2.5074,-2.5095,-2.5117,-2.518,-2.52,-2.5309,-2.5296,-2.5367,-2.5498,-2.5546,-2.5587,-2.5738,-2.5725,-2.5762,-2.5834,-2.5905,-2.5922,-2.5937,-2.5992,-2.6012,-2.5774,-2.5774,-2.5774,0,-2.4887,-2.5003,-2.5013,-2.51,-2.5145,-2.513,-2.5224,-2.5266,-2.5353,-2.5385,-2.5355,-2.5519,-2.5562,-2.5697,-2.5734,-2.5767,-2.5794,-2.5754,-2.5919,-2.5934,-2.5948,-2.6001,-2.6021,-2.5778,-2.5778,-2.5778,-2.5777,0,-2.5068,-2.5149,-2.5215,-2.5298,-2.5351,-2.5441,-2.5466,-2.5518,-2.5519,-2.5544,-2.5657,-2.5708,-2.5791,-2.5823,-2.5826,-2.5959,-2.5941,-2.5915,-2.586,-2.5972,-2.6022,-2.6042,-2.5784,-2.5783,-2.5782,-2.5781,0,0,-2.5231,-2.5318,-2.5343,-2.538,-2.5452,-2.5515,-2.5605,-2.5686,-2.5731,-2.5791,-2.5868,-2.598,-2.5956,-2.6003,-2.601,-2.6073,-2.619,-2.6039,-2.604,-2.6066,-2.6342,-2.6362,-2.6385,-2.6182,-2.6186,-2.6189,-2.6337,0,-2.537,-2.5527,-2.5539,-2.5681,-2.5757,-2.5744,-2.5822,-2.5875,-2.5901,-2.597,-2.5999,-2.6078,-2.604,-2.6068,-2.6129,-2.6163,-2.6246,-2.6152,-2.6255,-2.6258,-2.624,-2.6411,-2.6433,-2.657,-2.6357,-2.636,-2.6362,0,-2.5553,-2.5618,-2.5767,-2.5828,-2.5861,-2.5931,-2.6006,-2.6072,-2.6133,-2.6147,-2.62,-2.6199,-2.6293,-2.6235,-2.6365,-2.6301,-2.6344,-2.6367,-2.6373,-2.6384,-2.6318,-2.6428,-2.6614,-2.6635,-2.6393,-2.639,-2.6388,0,-2.5659,-2.5783,-2.5889,-2.5921,-2.5995,-2.6045,-2.6079,-2.6135,-2.6183,-2.625,-2.6282,-2.6359,-2.6401,-2.6461,-2.6482,-2.6437,-2.6613,-2.6555,-2.6629,-2.6628,-2.6667,-2.6664,-2.6864,-2.6693,-2.6692,-2.6692,-2.6691,0,-2.5813,-2.5905,-2.5937,-2.6002,-2.6105,-2.6119,-2.6222,-2.6253,-2.6303,-2.6375,-2.6369,-2.6437,-2.646,-2.6532,-2.6549,-2.6656,-2.6675,-2.669,-2.6694,-2.6691,-2.6689,-2.672,-2.6712,-2.6697,-2.6696,-2.6695,-2.6694,0,-2.5948,-2.5973,-2.6088,-2.6148,-2.6165,-2.6239,-2.6292,-2.6355,-2.6379,-2.6471,-2.6493,-2.6532,-2.6617,-2.6644,-2.6746,-2.6758,-2.6883,-2.6877,-2.6862,-2.6863,-2.6935,-2.6928,-2.7162,-2.7194,-2.7001,-2.7002,-2.7004,0,-2.6046,-2.6116,-2.6184,-2.6231,-2.6266,-2.6342,-2.6391,-2.6408,-2.6459,-2.6534,-2.6589,-2.6673,-2.6741,-2.6878,-2.6916,-2.6995,-2.6993,-2.7069,-2.7004,-2.7,-2.6995,-2.6991,-2.6999,-2.7081,-2.7083,-2.7085,-2.7086,0,-2.6216,-2.6225,-2.6295,-2.637,-2.6428,-2.6488,-2.6546,-2.6585,-2.6611,-2.6669,-2.6755,-2.6808,-2.6913,-2.6997,-2.7077,-2.7113,-2.7106,-2.7106,-2.7128,-2.7126,-2.7115,-2.7123,-2.6896,-2.7101,-2.71,-2.7099,-2.7098,-2.7097,-2.6336,-2.6399,-2.6456,-2.6535,-2.658,-2.6634,-2.6697,-2.6729,-2.6801,-2.6886,-2.6892,-2.6986,-2.7046,-2.7153,-2.7194,-2.7268,-2.7247,-2.7277,-2.7285,-2.7293,-2.7299,-2.7102,-2.7283,-2.7283,-2.7282,-2.7282,-2.7282,0,-2.6507,-2.6544,-2.6616,-2.6696,-2.6759,-2.6744,-2.6807,-2.6861,-2.6943,-2.6999,-2.7066,-2.7166,-2.7248,-2.7292,-2.7374,-2.7426,-2.7424,-2.7447,-2.7444,-2.7453,-2.7313,-2.7287,-2.7447,-2.7447,-2.7447,-2.7447,-2.7447,-2.7447,-2.6604,-2.6709,-2.6725,-2.6853,-2.6889,-2.6979,-2.7017,-2.7068,-2.7113,-2.7224,-2.7292,-2.732,-2.7372,-2.7458,-2.7533,-2.7544,-2.7575,-2.7601,-2.761,-2.7479,-2.7462,-2.7446,-2.7422,-2.7607,-2.7607,-2.7743,-2.7745,-2.7746]}]]